Tracking 34719 objects as of 13-Jul-2026
HD Live streaming from Space Station
objects crossing your sky now

ONEWEB-0363

Track ONEWEB-0363 now!
10-day predictions
ONEWEB-0363 is classified as:


NORAD ID: 49289
Int'l Code: 2021-090L
Perigee: 1,187.6 km
Apogee: 1,190.3 km
Inclination: 87.9 °
Period: 109.0 minutes
Semi major axis: 7559 km
RCS: Unknown
Launch date: October 14, 2021
Source: United Kingdom (UK)
Launch site: VOSTOCHNY COSMODROME (VOSTO)
Your satellite tracking list
Your tracking list is empty




NASA's NSSDC Master Catalog

Two Line Element Set (TLE):
1 49289U 21090L   26193.69404257  .00000060  00000-0  11444-3 0  9995
2 49289  87.9192 269.3569 0001775  94.5875 265.5461 13.20771932233673
Source of the keplerian elements: AFSPC